TimeCDT,TemperatureF,Dew PointF,Humidity,Sea Level PressureIn,VisibilityMPH,Wind Direction,Wind SpeedMPH,Gust SpeedMPH,PrecipitationIn,Events,Conditions,WindDirDegrees,DateUTC
12:53 AM,72.0,64.0,76,29.79,10.0,Calm,Calm,-,N/A,,Clear,0,2013-06-27 05:53:00
1:53 AM,69.1,64.0,84,29.78,10.0,Calm,Calm,-,N/A,,Clear,0,2013-06-27 06:53:00
2:53 AM,69.1,64.0,84,29.77,10.0,Calm,Calm,-,N/A,,Clear,0,2013-06-27 07:53:00
3:53 AM,68.0,64.0,87,29.78,10.0,Calm,Calm,-,N/A,,Clear,0,2013-06-27 08:53:00
4:53 AM,70.0,64.0,81,29.78,10.0,WSW,4.6,-,N/A,,Scattered Clouds,240,2013-06-27 09:53:00
5:53 AM,72.0,63.0,73,29.78,10.0,WSW,8.1,-,N/A,,Clear,240,2013-06-27 10:53:00
6:53 AM,73.9,63.0,68,29.78,10.0,West,10.4,-,N/A,,Mostly Cloudy,280,2013-06-27 11:53:00
7:53 AM,75.9,64.0,67,29.78,10.0,WNW,10.4,-,N/A,,Clear,290,2013-06-27 12:53:00
8:53 AM,78.1,64.9,64,29.79,10.0,NW,11.5,18.4,N/A,,Clear,310,2013-06-27 13:53:00
9:53 AM,80.1,64.0,58,29.78,10.0,WNW,11.5,-,N/A,,Clear,300,2013-06-27 14:53:00
10:53 AM,82.0,62.1,51,29.78,10.0,NW,12.7,18.4,N/A,,Clear,310,2013-06-27 15:53:00
11:53 AM,82.9,59.0,44,29.78,10.0,NW,16.1,24.2,N/A,,Clear,310,2013-06-27 16:53:00
12:53 PM,84.9,55.9,37,29.78,10.0,WNW,13.8,26.5,N/A,,Clear,290,2013-06-27 17:53:00
1:53 PM,84.9,54.0,34,29.79,10.0,WNW,19.6,31.1,N/A,,Clear,300,2013-06-27 18:53:00
2:53 PM,86.0,53.1,32,29.78,10.0,NW,19.6,29.9,N/A,,Clear,310,2013-06-27 19:53:00
3:53 PM,86.0,52.0,31,29.78,10.0,WNW,19.6,26.5,N/A,,Clear,290,2013-06-27 20:53:00
4:53 PM,84.9,53.1,33,29.78,10.0,West,19.6,25.3,N/A,,Clear,280,2013-06-27 21:53:00
5:53 PM,84.9,54.0,34,29.78,10.0,West,18.4,25.3,N/A,,Clear,280,2013-06-27 22:53:00
6:53 PM,82.9,54.0,37,29.78,10.0,WNW,16.1,24.2,N/A,,Clear,300,2013-06-27 23:53:00
7:53 PM,82.0,55.9,41,29.77,10.0,WNW,6.9,-,N/A,,Partly Cloudy,290,2013-06-28 00:53:00
8:53 PM,79.0,57.0,47,29.76,10.0,West,5.8,-,N/A,,Clear,280,2013-06-28 01:53:00
9:53 PM,75.0,59.0,57,29.76,10.0,West,5.8,-,N/A,,Clear,260,2013-06-28 02:53:00
10:53 PM,75.0,57.0,53,29.76,10.0,WNW,6.9,-,N/A,,Clear,290,2013-06-28 03:53:00
11:53 PM,73.9,55.9,53,29.77,10.0,WNW,9.2,-,N/A,,Clear,300,2013-06-28 04:53:00